TimeEST,TemperatureF,Dew PointF,Humidity,Sea Level PressureIn,VisibilityMPH,Wind Direction,Wind SpeedMPH,Gust SpeedMPH,PrecipitationIn,Events,Conditions,WindDirDegrees,DateUTC
12:15 AM,21.9,19.9,92,30.47,10.0,Calm,Calm,-,N/A,,Clear,0,2013-11-29 05:15:00
12:35 AM,21.4,19.9,94,30.47,10.0,Calm,Calm,-,N/A,,Clear,0,2013-11-29 05:35:00
12:55 AM,21.2,19.9,95,30.47,10.0,Calm,Calm,-,N/A,,Clear,0,2013-11-29 05:55:00
1:15 AM,21.9,20.1,93,30.47,10.0,Calm,Calm,-,N/A,,Clear,0,2013-11-29 06:15:00
1:35 AM,21.2,19.8,94,30.47,10.0,Calm,Calm,-,N/A,,Clear,0,2013-11-29 06:35:00
1:55 AM,21.0,19.4,93,30.47,10.0,Calm,Calm,-,N/A,,Clear,0,2013-11-29 06:55:00
2:15 AM,20.7,19.0,93,30.47,10.0,Calm,Calm,-,N/A,,Clear,0,2013-11-29 07:15:00
2:35 AM,20.7,19.0,93,30.47,10.0,Calm,Calm,-,N/A,,Clear,0,2013-11-29 07:35:00
2:55 AM,19.9,18.5,94,30.47,10.0,Calm,Calm,-,N/A,,Clear,0,2013-11-29 07:55:00
3:15 AM,20.5,19.4,96,30.47,10.0,Calm,Calm,-,N/A,,Clear,0,2013-11-29 08:15:00
3:35 AM,19.8,18.0,93,30.47,10.0,Calm,Calm,-,N/A,,Clear,0,2013-11-29 08:35:00
3:55 AM,19.8,18.7,96,30.48,10.0,Calm,Calm,-,N/A,,Clear,0,2013-11-29 08:55:00
4:15 AM,20.1,18.0,91,30.48,10.0,Calm,Calm,-,N/A,,Clear,0,2013-11-29 09:15:00
4:35 AM,19.4,18.1,95,30.48,10.0,Calm,Calm,-,N/A,,Clear,0,2013-11-29 09:35:00
4:55 AM,19.2,17.8,94,30.49,10.0,Calm,Calm,-,N/A,,Clear,0,2013-11-29 09:55:00
5:15 AM,18.5,16.9,93,30.49,10.0,Calm,Calm,-,N/A,,Clear,0,2013-11-29 10:15:00
5:35 AM,19.0,17.8,95,30.49,10.0,Calm,Calm,-,N/A,,Clear,0,2013-11-29 10:35:00
5:55 AM,18.9,17.6,95,30.50,10.0,Calm,Calm,-,N/A,,Clear,0,2013-11-29 10:55:00
6:15 AM,18.9,17.4,94,30.50,10.0,Calm,Calm,-,N/A,,Clear,0,2013-11-29 11:15:00
6:35 AM,18.9,17.6,95,30.51,10.0,Calm,Calm,-,N/A,,Clear,0,2013-11-29 11:35:00
6:55 AM,18.5,16.9,93,30.52,10.0,Calm,Calm,-,N/A,,Clear,0,2013-11-29 11:55:00
7:15 AM,18.9,17.2,93,30.53,10.0,Calm,Calm,-,N/A,,Clear,0,2013-11-29 12:15:00
7:35 AM,19.4,17.8,93,30.54,10.0,Calm,Calm,-,N/A,,Clear,0,2013-11-29 12:35:00
7:55 AM,21.4,19.8,93,30.55,10.0,Calm,Calm,-,N/A,,Clear,0,2013-11-29 12:55:00
8:15 AM,25.5,22.8,89,30.56,10.0,North,4.6,-,N/A,,Clear,10,2013-11-29 13:15:00
8:35 AM,33.3,22.8,66,30.57,10.0,NE,3.5,-,N/A,,Clear,50,2013-11-29 13:35:00
8:55 AM,35.4,22.6,60,30.58,10.0,North,8.1,-,N/A,,Clear,10,2013-11-29 13:55:00
9:15 AM,37.0,22.5,56,30.59,10.0,NNE,3.5,-,N/A,,Clear,30,2013-11-29 14:15:00
9:35 AM,39.0,21.4,49,30.59,10.0,NNE,5.8,-,N/A,,Clear,30,2013-11-29 14:35:00
9:55 AM,39.9,20.8,47,30.59,10.0,North,10.4,-,N/A,,Clear,10,2013-11-29 14:55:00
10:15 AM,41.0,20.3,44,30.60,10.0,North,8.1,-,N/A,,Clear,10,2013-11-29 15:15:00
10:35 AM,42.1,20.7,42,30.60,10.0,NNE,5.8,-,N/A,,Clear,30,2013-11-29 15:35:00
10:55 AM,43.2,20.1,40,30.60,10.0,NNW,5.8,-,N/A,,Clear,340,2013-11-29 15:55:00
11:15 AM,43.7,20.8,40,30.59,10.0,NNE,5.8,-,N/A,,Clear,20,2013-11-29 16:15:00
11:35 AM,44.8,21.2,39,30.59,10.0,NE,6.9,-,N/A,,Clear,50,2013-11-29 16:35:00
11:55 AM,45.3,21.6,39,30.58,10.0,NE,8.1,-,N/A,,Clear,50,2013-11-29 16:55:00
12:15 PM,46.0,21.2,37,30.57,10.0,ENE,5.8,-,N/A,,Clear,60,2013-11-29 17:15:00
12:35 PM,47.1,21.9,37,30.56,10.0,NE,10.4,-,N/A,,Clear,40,2013-11-29 17:35:00
12:55 PM,47.7,21.7,36,30.55,10.0,NNE,8.1,-,N/A,,Clear,20,2013-11-29 17:55:00
1:15 PM,47.8,21.7,36,30.55,10.0,ENE,6.9,-,N/A,,Clear,60,2013-11-29 18:15:00
1:35 PM,48.4,21.7,35,30.55,10.0,ENE,3.5,-,N/A,,Clear,70,2013-11-29 18:35:00
1:55 PM,48.4,21.9,35,30.55,10.0,East,5.8,-,N/A,,Clear,90,2013-11-29 18:55:00
2:15 PM,48.4,21.2,34,30.55,10.0,Calm,Calm,-,N/A,,Clear,0,2013-11-29 19:15:00
2:35 PM,48.7,21.7,35,30.55,10.0,East,4.6,-,N/A,,Clear,90,2013-11-29 19:35:00
2:55 PM,49.1,21.9,34,30.55,10.0,NE,3.5,-,N/A,,Clear,40,2013-11-29 19:55:00
3:15 PM,49.1,22.6,35,30.54,10.0,ENE,5.8,-,N/A,,Clear,70,2013-11-29 20:15:00
3:35 PM,48.4,22.5,36,30.55,10.0,East,5.8,-,N/A,,Clear,90,2013-11-29 20:35:00
3:55 PM,47.7,22.6,37,30.55,10.0,ESE,5.8,-,N/A,,Clear,110,2013-11-29 20:55:00
4:15 PM,46.8,21.9,37,30.56,10.0,ESE,4.6,-,N/A,,Clear,110,2013-11-29 21:15:00
4:35 PM,44.6,22.6,42,30.57,10.0,ESE,8.1,-,N/A,,Clear,110,2013-11-29 21:35:00
4:55 PM,41.9,22.1,45,30.57,10.0,East,4.6,-,N/A,,Clear,80,2013-11-29 21:55:00
5:15 PM,41.0,21.7,46,30.58,10.0,East,4.6,-,N/A,,Clear,90,2013-11-29 22:15:00
5:35 PM,40.5,21.7,47,30.58,10.0,East,3.5,-,N/A,,Clear,90,2013-11-29 22:35:00
5:55 PM,34.9,23.9,64,30.59,10.0,Calm,Calm,-,N/A,,Clear,0,2013-11-29 22:55:00
6:15 PM,32.0,23.9,72,30.59,10.0,Calm,Calm,-,N/A,,Clear,0,2013-11-29 23:15:00
6:35 PM,31.3,24.4,76,30.60,10.0,Calm,Calm,-,N/A,,Clear,0,2013-11-29 23:35:00
6:55 PM,29.3,24.1,81,30.60,10.0,NW,3.5,-,N/A,,Clear,320,2013-11-29 23:55:00
7:15 PM,28.8,23.7,81,30.61,10.0,NW,3.5,-,N/A,,Clear,320,2013-11-30 00:15:00
7:35 PM,28.0,23.0,81,30.62,10.0,Calm,Calm,-,N/A,,Clear,0,2013-11-30 00:35:00
7:55 PM,27.0,23.0,85,30.62,10.0,NW,3.5,-,N/A,,Clear,320,2013-11-30 00:55:00
8:15 PM,26.6,22.8,86,30.63,10.0,Calm,Calm,-,N/A,,Clear,0,2013-11-30 01:15:00
8:35 PM,26.6,22.8,86,30.63,10.0,Calm,Calm,-,N/A,,Clear,0,2013-11-30 01:35:00
8:55 PM,26.4,22.8,86,30.64,10.0,Calm,Calm,-,N/A,,Clear,0,2013-11-30 01:55:00
9:15 PM,26.1,22.8,88,30.64,10.0,Calm,Calm,-,N/A,,Clear,0,2013-11-30 02:15:00
9:35 PM,25.7,23.0,89,30.65,10.0,Calm,Calm,-,N/A,,Clear,0,2013-11-30 02:35:00
9:55 PM,26.1,23.0,88,30.65,10.0,Calm,Calm,-,N/A,,Clear,0,2013-11-30 02:55:00
10:15 PM,25.7,22.6,88,30.65,10.0,Calm,Calm,-,N/A,,Clear,0,2013-11-30 03:15:00
10:35 PM,25.5,22.3,88,30.66,10.0,Calm,Calm,-,N/A,,Clear,0,2013-11-30 03:35:00
10:55 PM,25.2,22.3,89,30.66,10.0,Calm,Calm,-,N/A,,Clear,0,2013-11-30 03:55:00
11:15 PM,25.3,22.8,90,30.67,10.0,Calm,Calm,-,N/A,,Clear,0,2013-11-30 04:15:00
11:35 PM,24.1,22.3,93,30.67,10.0,Calm,Calm,-,N/A,,Clear,0,2013-11-30 04:35:00
11:55 PM,23.9,22.1,93,30.67,10.0,Calm,Calm,-,N/A,,Clear,0,2013-11-30 04:55:00